WX9TRS Weather Reports


time (UTC)temp
C
wind
direction
speed
KPH
gust
KPH
rain 1hr
cm
rain 24hr
cm
rain mn
cm
humidity
%
barometer
mb
20260504012504 15 265 0.0 0.0 0.00 0.00 0.00 48 1003.2
20260504011504 16 265 0.0 0.0 0.00 0.00 0.00 46 1003.3
20260504011004 16 265 0.0 0.0 0.00 0.00 0.00 46 1003.2
20260504010004 17 265 0.0 0.0 0.00 0.00 0.00 44 1003.2
20260504005004 17 265 0.0 0.0 0.00 0.00 0.00 42 1003.2
20260504004504 18 265 0.0 0.0 0.00 0.00 0.00 41 1003.1
20260504004004 18 250 0.0 3.2 0.00 0.00 0.00 41 1003.1
20260504003503 18 267 0.0 3.2 0.00 0.00 0.00 40 1003.1
20260504003004 19 272 3.2 8.0 0.00 0.00 0.00 39 1003.1
20260504002504 19 268 1.6 4.8 0.00 0.00 0.00 38 1003.1
20260504002003 20 282 1.6 4.8 0.00 0.00 0.00 37 1003.1
20260504001504 20 273 3.2 9.7 0.00 0.00 0.00 37 1003.0
20260504001004 20 224 1.6 8.0 0.00 0.00 0.00 36 1003.0
20260504000503 20 255 3.2 8.0 0.00 0.00 0.00 36 1002.9
20260504000004 20 259 4.8 9.7 0.00 0.00 0.00 34 1002.9
20260503235504 20 251 4.8 11.3 0.00 0.00 0.00 33 1002.9
20260503235004 20 263 8.0 11.3 0.00 0.00 0.00 34 1002.8
20260503234003 20 272 4.8 11.3 0.00 0.00 0.00 35 1002.7
20260503233504 20 258 6.4 14.5 0.00 0.00 0.00 33 1002.7
20260503233004 20 254 4.8 9.7 0.00 0.00 0.00 33 1002.8
20260503232503 20 270 4.8 9.7 0.00 0.00 0.00 34 1002.8
20260503232003 21 279 8.0 14.5 0.00 0.00 0.00 34 1002.8
20260503231504 21 262 9.7 16.1 0.00 0.00 0.00 33 1002.8
20260503231004 21 268 4.8 12.9 0.00 0.00 0.00 33 1002.7
20260503230504 21 242 4.8 12.9 0.00 0.00 0.00 33 1002.9
20260503230004 21 259 9.7 14.5 0.00 0.00 0.00 33 1002.9
20260503225504 21 255 6.4 11.3 0.00 0.00 0.00 34 1002.9
20260503225004 21 274 3.2 11.3 0.00 0.00 0.00 34 1003.0
20260503224504 21 272 4.8 14.5 0.00 0.00 0.00 34 1003.0
20260503224004 21 239 8.0 16.1 0.00 0.00 0.00 33 1003.1
20260503223505 21 254 4.8 19.3 0.00 0.00 0.00 32 1003.1
20260503223004 21 281 6.4 12.9 0.00 0.00 0.00 34 1003.1
20260503222004 21 248 6.4 19.3 0.00 0.00 0.00 35 1003.1
20260503221503 21 260 8.0 16.1 0.00 0.00 0.00 34 1003.2
20260503221003 21 286 6.4 11.3 0.00 0.00 0.00 35 1003.1
20260503220504 21 254 4.8 19.3 0.00 0.00 0.00 32 1003.1
20260503220004 21 253 11.3 22.5 0.00 0.00 0.00 34 1003.1
20260503215503 21 271 8.0 12.9 0.00 0.00 0.00 35 1003.2
20260503215003 21 256 9.7 19.3 0.00 0.00 0.00 36 1003.2
20260503214504 20 241 8.0 19.3 0.00 0.00 0.00 36 1003.2
20260503214004 20 261 11.3 22.5 0.00 0.00 0.00 37 1003.2
20260503213503 21 251 8.0 19.3 0.00 0.00 0.00 36 1003.3
20260503213003 21 250 9.7 20.9 0.00 0.00 0.00 36 1003.2
20260503212504 21 215 8.0 14.5 0.00 0.00 0.00 36 1003.3
20260503212004 21 247 4.8 11.3 0.00 0.00 0.00 36 1003.3
20260503211503 21 231 8.0 14.5 0.00 0.00 0.00 36 1003.4
20260503211003 21 233 11.3 19.3 0.00 0.00 0.00 36 1003.3
20260503210005 21 249 8.0 20.9 0.00 0.00 0.00 36 1003.6
20260503205504 20 244 11.3 19.3 0.00 0.00 0.00 37 1003.5
20260503205004 20 226 8.0 22.5 0.00 0.00 0.00 38 1003.6
20260503204503 20 222 9.7 16.1 0.00 0.00 0.00 37 1003.7
20260503204003 20 229 11.3 22.5 0.00 0.00 0.00 35 1003.8
20260503203504 20 261 8.0 22.5 0.00 0.00 0.00 38 1003.9
20260503203004 20 247 8.0 24.1 0.00 0.00 0.00 40 1003.9
20260503202504 20 224 9.7 20.9 0.00 0.00 0.00 37 1004.0
20260503202003 20 250 9.7 16.1 0.00 0.00 0.00 38 1004.0
20260503201503 20 249 8.0 19.3 0.00 0.00 0.00 37 1004.1
20260503201004 20 259 9.7 14.5 0.00 0.00 0.00 38 1004.3
20260503200504 20 229 11.3 20.9 0.00 0.00 0.00 37 1004.5
20260503195503 19 213 11.3 22.5 0.00 0.00 0.00 39 1004.5
20260503195004 19 210 9.7 19.3 0.00 0.00 0.00 38 1004.6
20260503194504 20 252 11.3 14.5 0.00 0.00 0.00 38 1004.7
20260503194004 20 245 9.7 20.9 0.00 0.00 0.00 40 1004.8
20260503193503 20 227 8.0 22.5 0.00 0.00 0.00 38 1004.9
20260503192504 19 260 8.0 19.3 0.00 0.00 0.00 38 1005.0
20260503192004 19 252 17.7 32.2 0.00 0.00 0.00 38 1005.1
20260503191503 19 255 8.0 20.9 0.00 0.00 0.00 40 1005.1
20260503191003 18 239 11.3 25.7 0.00 0.00 0.00 40 1005.1
20260503190503 18 214 12.9 22.5 0.00 0.00 0.00 37 1005.1
20260503190004 19 235 8.0 27.4 0.00 0.00 0.00 39 1005.2
20260503185503 18 238 12.9 27.4 0.00 0.00 0.00 40 1005.2
20260503185004 18 254 14.5 29.0 0.00 0.00 0.00 39 1005.4
20260503184503 18 237 11.3 25.7 0.00 0.00 0.00 39 1005.3
20260503184004 18 236 11.3 20.9 0.00 0.00 0.00 39 1005.3
20260503183504 18 219 12.9 27.4 0.00 0.00 0.00 39 1005.4
20260503183004 18 232 9.7 22.5 0.00 0.00 0.00 40 1005.3
20260503182505 18 252 14.5 29.0 0.00 0.00 0.00 39 1005.4
20260503182006 18 226 11.3 22.5 0.00 0.00 0.00 41 1005.5
20260503181005 18 232 11.3 25.7 0.00 0.00 0.00 41 1005.6
20260503180505 17 230 11.3 20.9 0.00 0.00 0.00 43 1005.6
20260503180004 17 232 14.5 35.4 0.00 0.00 0.00 46 1005.7
20260503175505 17 203 14.5 35.4 0.00 0.00 0.00 43 1005.8
20260503175005 17 227 9.7 22.5 0.00 0.00 0.00 45 1005.9
20260503174505 17 208 11.3 24.1 0.00 0.00 0.00 45 1005.9
20260503174004 17 234 11.3 24.1 0.00 0.00 0.00 44 1006.0
20260503173504 17 241 12.9 24.1 0.00 0.00 0.00 45 1006.0
20260503173005 17 207 11.3 20.9 0.00 0.00 0.00 44 1006.2
20260503172505 16 223 16.1 29.0 0.00 0.00 0.00 42 1006.3
20260503172004 16 247 16.1 38.6 0.00 0.00 0.00 44 1006.3
20260503171504 16 210 16.1 33.8 0.00 0.00 0.00 42 1006.4
20260503171005 17 215 14.5 29.0 0.00 0.00 0.00 42 1006.5
20260503170505 17 238 14.5 27.4 0.00 0.00 0.00 42 1006.5
20260503131004 11 232 9.7 19.3 0.00 0.00 0.00 64 1009.6
20260503130504 11 237 6.4 12.9 0.00 0.00 0.00 62 1009.7
20260503110505 9 239 3.2 4.8 0.00 0.00 0.00 56 1009.8
20260503090504 9 217 4.8 9.7 0.00 0.00 0.00 54 1010.9
20260503081505 8 231 4.8 9.7 0.00 0.00 0.00 54 1011.1
20260503080504 8 211 8.0 11.3 0.00 0.00 0.00 53 1011.0
20260503072504 8 233 6.4 12.9 0.00 0.00 0.00 52 1011.3
20260503072004 8 211 4.8 12.9 0.00 0.00 0.00 52 1011.3
20260503071504 8 218 8.0 12.9 0.00 0.00 0.00 51 1011.3
20260503071004 8 220 4.8 9.7 0.00 0.00 0.00 52 1011.4
20260503055004 9 222 6.4 12.9 0.00 0.00 0.00 48 1012.0
20260503054503 9 217 4.8 11.3 0.00 0.00 0.00 48 1012.0
20260503054004 9 226 4.8 11.3 0.00 0.00 0.00 48 1012.1
20260503053004 9 227 6.4 12.9 0.00 0.00 0.00 48 1012.1
20260503052504 9 228 3.2 8.0 0.00 0.00 0.00 49 1012.2
20260503052005 9 228 4.8 9.7 0.00 0.00 0.00 48 1012.2
20260503051005 9 221 4.8 11.3 0.00 0.00 0.00 49 1012.3
20260503050504 9 214 4.8 9.7 0.00 0.00 0.00 48 1012.4
20260503050005 9 209 8.0 9.7 0.00 0.00 0.00 48 1012.4
20260503045504 10 214 4.8 11.3 0.00 0.00 0.00 48 1012.4
20260503045004 10 221 4.8 9.7 0.00 0.00 0.00 48 1012.4
20260503044505 10 226 6.4 11.3 0.00 0.00 0.00 48 1012.5
20260503044003 10 217 6.4 11.3 0.00 0.00 0.00 48 1012.5
20260503043004 10 224 4.8 8.0 0.00 0.00 0.00 48 1012.6
20260503042504 10 223 4.8 9.7 0.00 0.00 0.00 48 1012.6
20260503042004 10 214 4.8 9.7 0.00 0.00 0.00 48 1012.6
20260503040004 10 222 4.8 8.0 0.00 0.00 0.00 48 1012.8
20260503035503 10 227 3.2 4.8 0.00 0.00 0.00 48 1012.8
20260503035004 10 225 3.2 8.0 0.00 0.00 0.00 48 1012.8
20260503034004 10 238 3.2 4.8 0.00 0.00 0.00 48 1012.9
20260503033503 10 229 3.2 8.0 0.00 0.00 0.00 47 1012.9
20260503032504 10 212 3.2 9.7 0.00 0.00 0.00 47 1013.1
20260503032004 10 227 3.2 4.8 0.00 0.00 0.00 47 1013.1
20260503031504 10 230 4.8 9.7 0.00 0.00 0.00 47 1013.1
20260503031003 10 238 3.2 9.7 0.00 0.00 0.00 47 1013.1
20260503030504 10 239 3.2 8.0 0.00 0.00 0.00 47 1013.1
20260503025504 10 226 3.2 4.8 0.00 0.00 0.00 48 1013.2
20260503025003 9 241 3.2 8.0 0.00 0.00 0.00 49 1013.3
20260503024503 9 222 3.2 8.0 0.00 0.00 0.00 50 1013.3
20260503024004 8 209 3.2 8.0 0.00 0.00 0.00 52 1013.2
20260503023504 8 201 3.2 3.2 0.00 0.00 0.00 55 1013.3
20260503023004 8 203 1.6 3.2 0.00 0.00 0.00 55 1013.3
20260503022504 8 211 1.6 3.2 0.00 0.00 0.00 54 1013.3
20260503021504 8 230 3.2 8.0 0.00 0.00 0.00 55 1013.2
20260503021004 8 257 0.0 0.0 0.00 0.00 0.00 55 1013.2
20260503020004 8 257 0.0 0.0 0.00 0.00 0.00 53 1013.2
20260503015004 9 257 0.0 0.0 0.00 0.00 0.00 51 1013.1
20260503014504 9 257 0.0 0.0 0.00 0.00 0.00 50 1013.0
20260503013504 10 257 0.0 0.0 0.00 0.00 0.00 47 1013.0
20260503013004 10 257 0.0 0.0 0.00 0.00 0.00 47 1013.0